When you browse on this site, cookies collect data to enhance your experience and personalize the content and advertising you see.
Visit our Privacy Policy to learn more. By continuing to use the site, you agree to this use of cookies and data.
  • In Hungary
  • List of Countries
  • For 7 days
  • Water Temperature
  • Weather Map
  • News
  • Weather Widgets
  • user-avatar
    Login

    Hourly Weather Nai Muang

    Today, 12 December, Thursday

    Time Temperature Precipitation Wind Pressure Humidity
    00:00 +19°C° 0 mm 2 mps 747 mmHg 46%
    01:00 +19°C° 0 mm 2 mps 746 mmHg 46%
    02:00 +18°C° 0 mm 2 mps 746 mmHg 54%
    03:00 +17°C° 0 mm 2 mps 746 mmHg 62%
    04:00 +17°C° 0 mm 2 mps 746 mmHg 70%
    05:00 +17°C° 0 mm 2 mps 746 mmHg 76%
    06:00 +16°C° 0 mm 2 mps 747 mmHg 82%
    07:00 +17°C° 0 mm 2 mps 747 mmHg 86%
    08:00 +19°C° 0 mm 3 mps 748 mmHg 77%
    09:00 +22°C° 0 mm 4 mps 748 mmHg 69%
    10:00 +25°C° 0 mm 4 mps 749 mmHg 60%
    11:00 +27°C° 0 mm 4 mps 748 mmHg 54%
    12:00 +28°C° 0 mm 4 mps 747 mmHg 49%
    13:00 +30°C° 0 mm 4 mps 746 mmHg 44%
    14:00 +30°C° 0 mm 4 mps 746 mmHg 42%
    15:00 +30°C° 0 mm 4 mps 745 mmHg 41%
    16:00 +30°C° 0 mm 4 mps 745 mmHg 39%
    17:00 +28°C° 0 mm 3 mps 745 mmHg 44%
    18:00 +27°C° 0 mm 3 mps 745 mmHg 49%
    19:00 +25°C° 0 mm 2 mps 746 mmHg 54%
    20:00 +24°C° 0 mm 2 mps 746 mmHg 56%
    21:00 +23°C° 0 mm 2 mps 746 mmHg 58%
    22:00 +21°C° 0 mm 2 mps 747 mmHg 61%
    23:00 +21°C° 0 mm 2 mps 747 mmHg 63%

    Tomorrow, 13 December, Friday

    Time Temperature Precipitation Wind Pressure Humidity
    00:00 +20°C° 0 mm 3 mps 747 mmHg 65%
    01:00 +20°C° 0 mm 3 mps 747 mmHg 67%
    02:00 +19°C° 0 mm 3 mps 746 mmHg 72%
    03:00 +19°C° 0 mm 3 mps 746 mmHg 78%
    04:00 +18°C° 0 mm 2 mps 746 mmHg 84%
    05:00 +18°C° 0 mm 2 mps 747 mmHg 86%
    06:00 +18°C° 0 mm 2 mps 747 mmHg 87%
    07:00 +18°C° 0 mm 2 mps 748 mmHg 89%
    08:00 +20°C° 0 mm 3 mps 748 mmHg 81%
    09:00 +22°C° 0 mm 4 mps 749 mmHg 72%
    10:00 +26°C° 0 mm 4 mps 749 mmHg 63%
    11:00 +27°C° 0 mm 4 mps 748 mmHg 58%
    12:00 +29°C° 0 mm 4 mps 748 mmHg 52%
    13:00 +32°C° 0 mm 4 mps 747 mmHg 46%
    14:00 +32°C° 0 mm 4 mps 746 mmHg 45%
    15:00 +32°C° 0 mm 4 mps 746 mmHg 44%
    16:00 +32°C° 0 mm 4 mps 745 mmHg 43%
    17:00 +30°C° 0 mm 4 mps 746 mmHg 48%
    18:00 +28°C° 0 mm 3 mps 746 mmHg 53%
    19:00 +26°C° 0 mm 3 mps 746 mmHg 57%
    20:00 +25°C° 0 mm 3 mps 747 mmHg 59%
    21:00 +25°C° 0 mm 3 mps 747 mmHg 62%
    22:00 +24°C° 0 mm 3 mps 747 mmHg 64%
    23:00 +22°C° 0 mm 3 mps 747 mmHg 66%

    Day after tomorrow, 14 December, Saturday

    Time Temperature Precipitation Wind Pressure Humidity
    00:00 +22°C° 0 mm 3 mps 747 mmHg 68%
    01:00 +21°C° 0 mm 3 mps 747 mmHg 69%
    02:00 +20°C° 0 mm 3 mps 747 mmHg 73%
    03:00 +20°C° 0 mm 3 mps 746 mmHg 76%
    04:00 +19°C° 0 mm 3 mps 746 mmHg 79%
    05:00 +19°C° 0 mm 3 mps 747 mmHg 81%
    06:00 +18°C° 0 mm 2 mps 747 mmHg 83%
    07:00 +18°C° 0 mm 2 mps 748 mmHg 86%
    08:00 +21°C° 0 mm 3 mps 748 mmHg 77%
    09:00 +23°C° 0 mm 4 mps 748 mmHg 69%
    10:00 +26°C° 0 mm 4 mps 749 mmHg 60%
    11:00 +28°C° 0 mm 4 mps 748 mmHg 56%
    12:00 +30°C° 0 mm 4 mps 747 mmHg 51%
    13:00 +32°C° 0 mm 4 mps 747 mmHg 46%
    14:00 +32°C° 0 mm 4 mps 746 mmHg 45%
    15:00 +33°C° 0 mm 4 mps 745 mmHg 44%
    16:00 +33°C° 0 mm 3 mps 744 mmHg 43%
    17:00 +30°C° 0 mm 3 mps 745 mmHg 48%
    18:00 +29°C° 0 mm 3 mps 745 mmHg 52%
    19:00 +27°C° 0 mm 2 mps 745 mmHg 57%
    20:00 +26°C° 0 mm 2 mps 745 mmHg 59%
    21:00 +26°C° 0 mm 2 mps 746 mmHg 61%
    22:00 +25°C° 0 mm 2 mps 746 mmHg 62%
    23:00 +24°C° 0 mm 3 mps 746 mmHg 64%

    15 December, Sunday

    Time Temperature Precipitation Wind Pressure Humidity
    00:00 +24°C° 0 mm 3 mps 746 mmHg 66%
    01:00 +24°C° 0 mm 3 mps 746 mmHg 68%
    02:00 +22°C° 0 mm 3 mps 745 mmHg 72%
    03:00 +21°C° 0 mm 3 mps 745 mmHg 77%
    04:00 +21°C° 0 mm 3 mps 745 mmHg 82%
    05:00 +20°C° 0 mm 2 mps 746 mmHg 84%
    06:00 +20°C° 0 mm 2 mps 746 mmHg 86%
    07:00 +20°C° 0 mm 2 mps 746 mmHg 87%
    08:00 +22°C° 0 mm 3 mps 747 mmHg 78%
    09:00 +25°C° 0 mm 4 mps 747 mmHg 69%
    10:00 +28°C° 0 mm 5 mps 747 mmHg 59%
    11:00 +29°C° 0 mm 5 mps 746 mmHg 53%
    12:00 +32°C° 0 mm 5 mps 746 mmHg 47%
    13:00 +34°C° 0 mm 5 mps 745 mmHg 41%
    14:00 +34°C° 0 mm 5 mps 745 mmHg 41%
    15:00 +34°C° 0 mm 4 mps 744 mmHg 40%
    16:00 +34°C° 0 mm 4 mps 743 mmHg 39%
    17:00 +31°C° 0 mm 3 mps 744 mmHg 43%
    18:00 +30°C° 0 mm 3 mps 744 mmHg 47%
    19:00 +28°C° 0 mm 2 mps 744 mmHg 51%
    20:00 +27°C° 0 mm 2 mps 744 mmHg 52%
    21:00 +26°C° 0 mm 3 mps 745 mmHg 54%
    22:00 +25°C° 0 mm 3 mps 745 mmHg 55%
    23:00 +25°C° 0 mm 3 mps 745 mmHg 56%

    16 December, Monday

    Time Temperature Precipitation Wind Pressure Humidity
    00:00 +24°C° 0 mm 3 mps 745 mmHg 57%
    01:00 +24°C° 0 mm 3 mps 745 mmHg 58%
    02:00 +22°C° 0 mm 3 mps 745 mmHg 64%
    03:00 +22°C° 0 mm 3 mps 744 mmHg 70%
    04:00 +21°C° 0 mm 3 mps 744 mmHg 75%
    05:00 +21°C° 0 mm 2 mps 745 mmHg 79%
    06:00 +20°C° 0 mm 2 mps 745 mmHg 83%
    07:00 +20°C° 0 mm 2 mps 745 mmHg 87%
    08:00 +22°C° 0 mm 3 mps 746 mmHg 78%
    09:00 +26°C° 0 mm 3 mps 746 mmHg 69%
    10:00 +28°C° 0 mm 4 mps 747 mmHg 60%
    11:00 +30°C° 0 mm 4 mps 746 mmHg 54%
    12:00 +32°C° 0 mm 4 mps 745 mmHg 48%
    13:00 +34°C° 0 mm 4 mps 744 mmHg 41%
    14:00 +34°C° 0 mm 4 mps 744 mmHg 40%
    15:00 +34°C° 0 mm 4 mps 744 mmHg 39%
    16:00 +35°C° 0 mm 3 mps 743 mmHg 38%
    17:00 +33°C° 0 mm 3 mps 743 mmHg 43%
    18:00 +30°C° 0 mm 2 mps 744 mmHg 47%
    19:00 +29°C° 0 mm 2 mps 744 mmHg 51%
    20:00 +28°C° 0 mm 2 mps 744 mmHg 53%
    21:00 +27°C° 0 mm 2 mps 745 mmHg 55%
    22:00 +27°C° 0 mm 2 mps 745 mmHg 56%
    23:00 +26°C° 0 mm 2 mps 745 mmHg 58%

    17 December, Tuesday

    Time Temperature Precipitation Wind Pressure Humidity
    00:00 +26°C° 0 mm 2 mps 745 mmHg 59%
    01:00 +25°C° 0 mm 2 mps 744 mmHg 61%
    02:00 +25°C° 0 mm 2 mps 744 mmHg 65%
    03:00 +24°C° 0 mm 2 mps 744 mmHg 69%
    04:00 +24°C° 0 mm 2 mps 744 mmHg 73%
    05:00 +23°C° 0 mm 2 mps 744 mmHg 77%
    06:00 +23°C° 0 mm 2 mps 745 mmHg 80%
    07:00 +23°C° 0 mm 2 mps 745 mmHg 84%
    08:00 +25°C° 0 mm 2 mps 746 mmHg 76%
    09:00 +27°C° 0 mm 3 mps 746 mmHg 68%
    10:00 +29°C° 0 mm 3 mps 746 mmHg 59%
    11:00 +31°C° 0 mm 3 mps 746 mmHg 54%
    12:00 +33°C° 0 mm 3 mps 745 mmHg 49%
    13:00 +35°C° 0 mm 3 mps 744 mmHg 44%
    14:00 +35°C° 0 mm 3 mps 744 mmHg 43%
    15:00 +35°C° 0 mm 3 mps 743 mmHg 42%
    16:00 +35°C° 0 mm 3 mps 743 mmHg 40%
    17:00 +34°C° 0 mm 2 mps 743 mmHg 44%
    18:00 +32°C° 0 mm 2 mps 743 mmHg 47%
    19:00 +30°C° 0 mm 2 mps 743 mmHg 51%
    20:00 +29°C° 0 mm 2 mps 744 mmHg 53%
    21:00 +28°C° 0 mm 2 mps 744 mmHg 56%
    22:00 +28°C° 0 mm 1 mps 745 mmHg 58%
    23:00 +27°C° 0 mm 1 mps 745 mmHg 60%
    Show more